Weather reports worldwide

Advertisment
Santander, Spain (8023): temperature & dewpoint: 12.01.2020 13:00:00 - 18.01.2020 13:00:00 (CET)Santander, Spain (8023): wind speed: 12.01.2020 13:00:00 - 18.01.2020 13:00:00 (CET)Santander, Spain (8023): wind direction: 12.01.2020 13:00:00 - 18.01.2020 13:00:00 (CET)Santander, Spain (8023): reduced air pressure: 12.01.2020 13:00:00 - 18.01.2020 13:00:00 (CET)Santander, Spain (8023): visibility: 12.01.2020 13:00:00 - 18.01.2020 13:00:00 (CET)Santander, Spain (8023): precipitation: 12.01.2020 13:00:00 - 18.01.2020 13:00:00 (CET)
Date & Time tt [°C] td [°C] ff [km/h] ff [kn] dd ppp [hPa] vv [km] rr [mm]
18.01.2020 13:00:00 15,2 4,5 39 21 SSW 1017,4 30 -
18.01.2020 12:00:00 14,2 3,9 34 18 SSW 1018,8 20 0,0
18.01.2020 11:00:00 13,5 3,3 31 17 SSW 1020,8 20 0,0
18.01.2020 10:00:00 12,5 2,6 34 18 S 1021,7 25 -
18.01.2020 09:00:00 10,9 3,0 16 9 S 1022,9 20 0,0
18.01.2020 08:00:00 8,8 4,4 16 9 SE 1024,5 14 0,0
18.01.2020 07:00:00 8,9 4,7 16 9 ESE 1025,5 10 -
18.01.2020 06:00:00 9,6 5,2 18 10 E 1026,4 14 0,0
18.01.2020 05:00:00 9,1 5,1 11 6 E 1027,6 12 0,0
18.01.2020 04:00:00 9,1 4,9 15 8 SE 1028,5 10 -
18.01.2020 03:00:00 9,6 5,2 16 9 ESE 1029,1 14 0,0
18.01.2020 02:00:00 9,0 6,4 11 6 SE 1030,2 11 0,0
18.01.2020 01:00:00 9,0 6,8 13 7 SE 1030,8 10 -
18.01.2020 00:00:00 8,9 6,5 9 5 SSE 1031,5 10 0,0
17.01.2020 23:00:00 9,4 6,5 9 5 SSE 1032,1 12 0,0
17.01.2020 22:00:00 9,9 6,4 11 6 S 1032,5 10 -
17.01.2020 21:00:00 10,2 6,0 9 5 S 1032,8 13 0,0
17.01.2020 20:00:00 10,9 6,4 15 8 NW 1032,9 10 0,0
17.01.2020 19:00:00 10,7 5,7 18 10 WNW 1032,7 10 -
17.01.2020 18:00:00 10,8 6,2 26 14 WNW 1032,1 11 0,0
17.01.2020 17:00:00 11,4 6,1 29 16 NW 1031,2 11 0,0
17.01.2020 16:00:00 12,0 4,7 37 20 NW 1030,3 10 -
17.01.2020 15:00:00 12,3 4,5 34 18 WNW 1030,0 14 0,0
17.01.2020 14:00:00 12,6 5,3 29 16 WNW 1030,0 15 0,0
17.01.2020 13:00:00 12,4 5,5 31 17 WNW 1029,9 12 -
17.01.2020 12:00:00 11,5 6,8 28 15 WNW 1029,8 12 0,0
17.01.2020 11:00:00 11,1 6,0 39 21 WNW 1029,0 13 0,0
17.01.2020 10:00:00 10,8 6,7 44 24 NW 1027,8 10 -
17.01.2020 09:00:00 10,9 7,4 28 15 W 1026,8 15 0,2
17.01.2020 08:00:00 10,3 7,5 16 9 W 1025,9 9 1,0
17.01.2020 07:00:00 10,4 8,2 34 18 W 1024,9 7 -
17.01.2020 06:00:00 10,2 8,5 24 13 W 1024,0 3,0 3,0
17.01.2020 05:00:00 12,1 9,1 11 6 WSW 1022,8 14 0,0
17.01.2020 04:00:00 11,6 10,0 9 5 W 1022,8 10 -
17.01.2020 03:00:00 11,7 9,9 13 7 SSW 1022,1 11 0,0
17.01.2020 02:00:00 12,2 10,3 15 8 NW 1021,6 8 0,0
17.01.2020 01:00:00 12,5 11,1 15 8 NNW 1020,0 12 -
17.01.2020 00:00:00 12,0 10,7 4 2 NE 1018,9 11 0,0
16.01.2020 23:00:00 12,3 10,9 11 6 NE 1019,5 8 0,0
16.01.2020 22:00:00 13,0 10,9 9 5 NNW 1020,4 15 -
16.01.2020 21:00:00 16,9 3,6 22 12 SW 1018,4 20 0,0
16.01.2020 20:00:00 17,2 2,7 26 14 SSW 1017,1 20 0,0
16.01.2020 19:00:00 17,6 3,5 35 19 SSW 1016,8 30 -
16.01.2020 18:00:00 18,0 3,8 26 14 S 1016,7 20 0,0
16.01.2020 17:00:00 18,5 3,9 29 16 SSW 1016,3 20 0,0
16.01.2020 16:00:00 18,5 3,5 26 14 SSW 1016,4 25 -
16.01.2020 15:00:00 18,1 5,0 29 16 SSW 1015,9 20 0,0
16.01.2020 14:00:00 17,5 6,7 28 15 SSW 1017,2 20 0,0
16.01.2020 13:00:00 18,0 7,1 39 21 SSW 1018,2 30 -
16.01.2020 12:00:00 17,4 7,2 24 13 SSW 1019,2 20 0,0
16.01.2020 11:00:00 17,0 7,3 34 18 SSW 1019,0 20 0,0
16.01.2020 10:00:00 16,9 7,5 29 16 S 1018,5 40 -
16.01.2020 09:00:00 16,4 7,9 29 16 S 1018,4 20 0,0
16.01.2020 08:00:00 16,4 7,6 35 19 SSW 1018,3 20 0,0
16.01.2020 07:00:00 16,2 7,9 29 16 SSW 1017,8 20 -
16.01.2020 06:00:00 16,5 7,7 22 12 S 1018,0 20 0,0
16.01.2020 05:00:00 16,9 8,1 28 15 S 1018,1 20 0,0
16.01.2020 04:00:00 16,8 8,0 28 15 SSW 1018,7 20 -
16.01.2020 03:00:00 16,3 8,3 31 17 SSW 1018,4 20 0,0
16.01.2020 02:00:00 15,9 8,4 31 17 S 1019,0 20 0,0
16.01.2020 01:00:00 15,0 7,8 28 15 SSW 1019,9 20 -
16.01.2020 00:00:00 10,6 9,4 9 5 ESE 1021,1 8 0,0
15.01.2020 23:00:00 11,3 10,2 15 8 ESE 1021,4 9 0,0
15.01.2020 22:00:00 11,4 10,1 13 7 ESE 1021,8 12 -
15.01.2020 21:00:00 11,1 9,8 16 9 ESE 1022,2 9 0,0
15.01.2020 20:00:00 11,0 9,7 11 6 ESE 1022,8 3,9 0,0
15.01.2020 19:00:00 11,4 9,5 8 4 E 1022,9 15 -
15.01.2020 18:00:00 12,2 9,8 4 2 E 1022,4 6 0,0
15.01.2020 17:00:00 12,6 10,1 5 3 NW 1021,6 8 0,0
15.01.2020 16:00:00 12,9 10,1 11 6 NW 1020,9 15 -
15.01.2020 15:00:00 14,0 10,8 15 8 WNW 1020,3 9 0,0
15.01.2020 14:00:00 13,5 10,8 13 7 WNW 1020,0 8 0,0
15.01.2020 13:00:00 13,6 9,6 11 6 NW 1019,8 12 -
15.01.2020 12:00:00 13,4 9,8 9 5 SSW 1018,9 20 0,0
15.01.2020 11:00:00 13,2 9,8 24 13 W 1019,0 8 0,0
15.01.2020 10:00:00 15,6 6,0 29 16 SSW 1015,4 15 -
15.01.2020 09:00:00 15,2 5,7 39 21 SSW 1013,3 20 0,0
15.01.2020 08:00:00 15,6 5,8 42 23 SSW 1011,9 20 0,0
15.01.2020 07:00:00 15,5 5,7 41 22 SSW 1011,5 50 -
15.01.2020 06:00:00 15,2 5,7 37 20 SSW 1011,1 20 0,0
15.01.2020 05:00:00 15,0 6,0 39 21 SSW 1010,6 20 0,0
15.01.2020 04:00:00 14,9 5,9 41 22 SSW 1011,2 50 -
15.01.2020 03:00:00 14,8 5,6 39 21 S 1011,3 20 0,0
15.01.2020 02:00:00 15,0 4,7 29 16 SSW 1011,4 20 0,0
15.01.2020 01:00:00 14,1 5,4 28 15 S 1012,7 50 -
15.01.2020 00:00:00 14,2 5,0 31 17 S 1013,6 20 0,0
14.01.2020 23:00:00 14,3 4,3 28 15 SSW 1013,0 20 0,0
14.01.2020 22:00:00 14,5 4,5 31 17 SSW 1013,0 30 -
14.01.2020 21:00:00 14,7 4,4 31 17 SSW 1013,2 20 0,0
14.01.2020 20:00:00 14,7 3,8 29 16 SSW 1012,8 20 0,0
14.01.2020 19:00:00 14,8 3,9 34 18 SSW 1012,1 30 -
14.01.2020 18:00:00 14,8 3,6 29 16 SSW 1011,8 20 0,0
14.01.2020 17:00:00 14,8 3,9 39 21 SSW 1011,8 20 0,0
14.01.2020 16:00:00 15,7 3,5 44 24 SSW 1011,9 30 -
14.01.2020 15:00:00 16,0 2,7 29 16 SSW 1012,4 20 0,0
14.01.2020 14:00:00 15,1 2,9 41 22 SSW 1012,4 20 0,0
14.01.2020 13:00:00 14,0 2,9 42 23 SSW 1012,5 30 -
14.01.2020 12:00:00 13,2 3,5 46 25 SSW 1012,7 20 0,0
14.01.2020 11:00:00 13,3 3,4 41 22 S 1013,2 20 0,0
14.01.2020 10:00:00 13,2 3,3 39 21 SSW 1012,9 30 -
14.01.2020 09:00:00 12,9 3,3 41 22 SSW 1012,8 20 0,0
14.01.2020 08:00:00 13,4 2,9 34 18 SSW 1012,6 20 0,0
14.01.2020 07:00:00 13,0 3,1 35 19 SSW 1012,2 20 -
14.01.2020 06:00:00 13,1 2,9 34 18 SSW 1012,6 20 0,0
14.01.2020 05:00:00 12,9 1,8 37 20 SSW 1012,9 20 0,0
14.01.2020 04:00:00 12,4 1,7 34 18 S 1013,3 20 -
14.01.2020 03:00:00 12,7 1,7 34 18 S 1013,6 20 0,0
14.01.2020 02:00:00 12,8 1,1 35 19 S 1014,0 20 0,0
14.01.2020 01:00:00 12,3 0,7 34 18 S 1014,4 20 -
14.01.2020 00:00:00 12,0 -0,5 35 19 S 1014,8 20 0,0
13.01.2020 23:00:00 12,2 -1,0 34 18 SSW 1014,9 20 0,0
13.01.2020 22:00:00 11,7 -2,2 35 19 SSW 1015,4 20 -
13.01.2020 21:00:00 12,4 -3,0 31 17 SSW 1015,5 20 0,0
13.01.2020 20:00:00 13,2 -4,0 29 16 SSW 1015,3 20 0,0
13.01.2020 19:00:00 14,2 -5,6 28 15 SSW 1014,6 50 -
13.01.2020 18:00:00 14,5 -4,3 26 14 S 1015,1 20 0,0
13.01.2020 17:00:00 14,8 -5,1 22 12 S 1015,8 17 0,0
13.01.2020 16:00:00 15,3 -4,6 21 11 S 1016,0 50 -
13.01.2020 15:00:00 14,6 7,2 8 4 SE 1017,0 10 0,0
13.01.2020 14:00:00 14,9 4,0 8 4 SE 1018,3 20 0,0
13.01.2020 13:00:00 14,6 0,8 8 4 SSW 1019,8 50 -
13.01.2020 12:00:00 11,5 0,6 15 8 S 1021,0 20 0,0
13.01.2020 11:00:00 10,6 3,1 4 2 N 1021,9 13 0,0
13.01.2020 10:00:00 8,5 1,6 8 4 SSE 1021,8 50 -
13.01.2020 09:00:00 8,8 1,5 8 4 WSW 1021,8 17 0,0
13.01.2020 08:00:00 8,2 1,3 9 5 SW 1022,4 20 0,0
13.01.2020 07:00:00 8,0 2,7 4 2 WSW 1022,8 15 -
13.01.2020 06:00:00 7,9 2,8 9 5 S 1023,2 20 0,0
13.01.2020 05:00:00 8,6 5,2 2 1 SW 1024,2 10 0,0
13.01.2020 04:00:00 8,8 4,0 5 3 S 1025,1 12 -
13.01.2020 03:00:00 8,6 4,2 9 5 SW 1025,9 11 0,0
13.01.2020 02:00:00 8,1 4,1 15 8 S 1026,5 10 0,0
13.01.2020 01:00:00 8,6 4,4 11 6 SSE 1027,4 10 -
13.01.2020 00:00:00 9,3 5,8 8 4 SSE 1028,1 6 0,0
12.01.2020 23:00:00 10,3 6,1 2 1 NNE 1028,7 - 0,0
12.01.2020 22:00:00 10,1 5,3 5 3 S 1028,9 15 -
12.01.2020 21:00:00 10,7 6,3 4 2 SSE 1029,4 11 0,0
12.01.2020 20:00:00 11,1 6,0 2 1 SE 1029,8 9 0,0
12.01.2020 19:00:00 11,1 6,4 5 3 ESE 1029,9 20 -
12.01.2020 18:00:00 11,6 7,3 5 3 E 1029,7 9 0,0
12.01.2020 17:00:00 12,7 7,6 4 2 ENE 1029,9 14 0,0
12.01.2020 16:00:00 13,4 7,8 4 2 ENE 1030,0 25 -
12.01.2020 15:00:00 14,1 8,1 4 2 E 1029,9 7 0,0
12.01.2020 14:00:00 14,5 4,2 5 3 SE 1030,6 20 0,0
12.01.2020 13:00:00 13,9 4,2 8 4 SSE 1031,5 30 -

tt = temperature
td = dewpoint
ff = wind speed
dd = wind direction
ppp = reduced air pressure
vv = visibility
rr = precipitation

Next stations